Cloud_Cover
5 2 9 11 21 27 41 32 11 5 5 5 5 34 29 8 5 5 6 5 22 5 5 20 5 5 6 0 0 5 47 74 99 28 89 100 84 77 26 19 40 48 16
5 5 5 6 8 23 24 32 58 15 6 5 5 7 16 5 5 5 6 5 6 15 5 5 5 15 84 27 11 16 12 12 28 11 20 10 64 49 96 98 98 98 95
2 5 5 8 6 11 29 47 28 19 23 82 52 93 58 5 5 26 5 6 5 5 5 5 15 19 71 100 89 25 7 28 18 32 18 62 97 93 98 100 100 100 100
5 5 5 5 15 37 84 35 24 47 83 53 72 64 6 5 17 5 12 7 11 7 5 5 5 3 4 5 100 46 60 100 100 100 100 100 100 100 100 100 100 100 100
3 4 5 6 17 83 45 37 100 86 92 82 71 6 5 6 6 24 5 5 5 8 11 5 5 5 5 5 28 40 93 81 89 100 100 100 100 100 100 100 100 100 100
21 8 54 86 96 100 86 58 81 80 100 71 32 20 31 20 56 71 38 18 8 5 5 5 5 32 12 69 35 37 87 100 83 84 100 100 100 100 100 100 100 100 100
5 13 80 100 58 100 100 100 100 100 100 15 79 73 5 6 41 72 54 10 5 5 5 5 16 16 11 59 57 100 100 100 100 80 51 100 100 100 100 100 100 100 100
5 5 37 81 91 93 100 100 100 28 29 72 64 100 100 98 100 95 35 19 9 6 40 14 48 20 13 94 70 18 100 100 99 100 100 100 100 100 100 100 100 100 100
30 60 58 58 61 97 100 100 86 100 100 100 92 88 100 100 100 100 79 53 25 18 32 84 59 78 47 19 71 100 100 100 100 100 100 100 100 100 100 100 100 100 100
100 100 100 100 100 100 100 100 100 100 100 100 100 100 100 100 100 96 100 100 94 84 100 72 70 100 98 100 100 100 100 100 100 100 100 100 100 100 100 100 100 100 100
100 100 100 100 100 100 100 100 100 100 100 100 100 100 100 98 100 100 100 100 92 100 99 100 58 98 61 100 43 98 100 100 100 100 100 100 100 100 100 100 100 100 100
100 100 100 100 100 100 100 100 100 100 98 87 100 100 95 100 100 100 100 100 100 76 18 82 86 88 100 60 100 99 99 100 99 100 100 100 100 100 100 100 100 100 100
100 100 100 100 100 92 100 100 100 100 100 100 100 100 100 100 82 100 92 97 95 61 87 100 100 100 60 0 24 14 6 61 90 100 100 100 100 100 100 100 100 100 100
100 100 100 100 100 100 100 100 100 100 100 100 100 100 100 74 34 73 100 99 98 100 82 14 71 32 7 0 79 100 100 100 58 100 100 100 100 100 100 100 100 100 100
100 100 100 100 100 100 100 100 100 100 100 100 100 100 100 100 96 66 100 100 100 100 100 100 95 100 71 63 60 79 26 10 73 100 100 100 100 100 100 100 100 100 100
100 100 100 100 100 100 100 100 92 88 100 88 61 94 100 100 100 100 100 98 100 100 100 100 100 100 100 100 98 22 100 100 100 98 100 100 100 100 100 100 100 100 100
100 100 100 100 100 98 72 65 58 68 100 95 74 40 84 100 94 76 100 100 98 100 100 100 100 100 100 100 100 100 100 100 100 100 100 100 100 100 100 100 100 100 100
100 100 100 100 89 37 67 77 5 5 5 6 5 100 100 89 57 100 100 100 100 100 100 100 100 95 80 100 100 100 100 100 100 100 100 100 100 100 100 100 100 100 100
58 51 73 66 81 74 77 27 75 61 55 54 26 100 64 4 26 33 90 100 100 98 83 97 100 100 98 100 100 100 100 100 100 100 100 100 100 100 100 100 100 100 100
99 94 69 100 88 100 95 100 100 100 100 100 100 100 82 32 21 38 69 74 84 100 100 100 100 96 99 100 100 100 100 100 100 100 100 100 100 100 100 100 100 100 100
100 100 100 100 100 100 100 100 100 100 100 100 100 100 100 100 100 100 100 100 100 100 100 100 99 91 92 100 100 100 100 100 100 100 100 100 80 74 92 100 100 100 100
100 100 100 100 100 100 100 100 100 100 98 65 100 67 99 98 85 100 100 100 100 100 98 75 48 32 23 21 14 23 19 13 11 5 5 5 5 5 5 6 42 99 100
100 100 100 100 100 100 100 100 100 39 8 5 7 11 6 5 25 8 5 5 12 20 35 26 5 5 5 7 5 5 5 5 5 5 5 5 5 5 4 3 5 7 30
100 100 100 100 100 100 100 73 10 11 99 100 55 60 6 5 12 5 5 5 5 26 15 5 5 5 5 5 5 5 5 5 5 5 5 85 5 5 5 5 5 5 5
100 100 100 100 100 100 47 5 11 5 5 5 4 5 5 8 18 62 5 5 5 64 51 40 13 20 9 12 6 5 8 55 18 5 5 6 5 5 5 5 5 72 37
100 100 100 100 100 76 5 0 0 0 0 0 5 5 5 5 24 20 5 7 70 71 81 75 46 55 6 5 5 5 22 55 74 6 4 38 21 5 11 5 5 5 35